Year,Month,Day,Hour,Minute,Value (Times are PST for temperature in C)
2014,02,13,00,00,3.00
2014,02,13,00,01,2.90
2014,02,13,00,02,2.90
2014,02,13,00,03,2.90
2014,02,13,00,04,2.90
2014,02,13,00,05,2.90
2014,02,13,00,06,2.90
2014,02,13,00,07,2.90
2014,02,13,00,08,2.90
2014,02,13,00,09,2.90
2014,02,13,00,10,2.90
2014,02,13,00,11,2.90
2014,02,13,00,12,2.90
2014,02,13,00,13,2.90
2014,02,13,00,14,2.90
2014,02,13,00,15,2.90
2014,02,13,00,16,2.90
2014,02,13,00,17,2.90
2014,02,13,00,18,2.90
2014,02,13,00,19,2.90
2014,02,13,00,20,2.90
2014,02,13,00,21,2.90
2014,02,13,00,22,2.80
2014,02,13,00,23,2.80
2014,02,13,00,24,2.80
2014,02,13,00,25,2.80
2014,02,13,00,26,2.80
2014,02,13,00,27,2.80
2014,02,13,00,28,2.80
2014,02,13,00,29,2.80
2014,02,13,00,30,2.80
2014,02,13,00,31,2.80
2014,02,13,00,32,2.80
2014,02,13,00,33,2.80
2014,02,13,00,34,2.80
2014,02,13,00,35,2.80
2014,02,13,00,36,2.80
2014,02,13,00,37,2.80
2014,02,13,00,38,2.80
2014,02,13,00,39,2.80
2014,02,13,00,40,2.80
2014,02,13,00,41,2.80
2014,02,13,00,42,2.80
2014,02,13,00,43,2.80
2014,02,13,00,44,2.80
2014,02,13,00,45,2.80
2014,02,13,00,46,2.80
2014,02,13,00,47,2.80
2014,02,13,00,48,2.70
2014,02,13,00,49,2.70
2014,02,13,00,50,2.70
2014,02,13,00,51,2.70
2014,02,13,00,52,2.70
2014,02,13,00,53,2.70
2014,02,13,00,54,2.60
2014,02,13,00,55,2.60
2014,02,13,00,56,2.60
2014,02,13,00,57,2.60
2014,02,13,00,58,2.60
2014,02,13,00,59,2.60
2014,02,13,01,00,2.60
2014,02,13,01,01,2.60
2014,02,13,01,02,2.60
2014,02,13,01,03,2.50
2014,02,13,01,04,2.60
2014,02,13,01,05,2.50
2014,02,13,01,06,2.50
2014,02,13,01,07,2.50
2014,02,13,01,08,2.50
2014,02,13,01,09,2.50
2014,02,13,01,10,2.50
2014,02,13,01,11,2.50
2014,02,13,01,12,2.50
2014,02,13,01,13,2.50
2014,02,13,01,14,2.50
2014,02,13,01,15,2.50
2014,02,13,01,16,2.50
2014,02,13,01,17,2.60
2014,02,13,01,18,2.50
2014,02,13,01,19,2.60
2014,02,13,01,20,2.60
2014,02,13,01,21,2.60
2014,02,13,01,22,2.50
2014,02,13,01,23,2.60
2014,02,13,01,24,2.50
2014,02,13,01,25,2.60
2014,02,13,01,26,2.60
2014,02,13,01,27,2.60
2014,02,13,01,28,2.60
2014,02,13,01,29,2.60
2014,02,13,01,30,2.60
2014,02,13,01,31,2.60
2014,02,13,01,32,2.60
2014,02,13,01,33,2.60
2014,02,13,01,34,2.60
2014,02,13,01,35,2.60
2014,02,13,01,36,2.60
2014,02,13,01,37,2.60
2014,02,13,01,38,2.60
2014,02,13,01,39,2.60
2014,02,13,01,40,2.60
2014,02,13,01,41,2.60
2014,02,13,01,42,2.60
2014,02,13,01,43,2.60
2014,02,13,01,44,2.50
2014,02,13,01,45,2.50
2014,02,13,01,46,2.50
2014,02,13,01,47,2.40
2014,02,13,01,48,2.40
2014,02,13,01,49,2.40
2014,02,13,01,50,2.40
2014,02,13,01,51,2.50
2014,02,13,01,52,2.50
2014,02,13,01,53,2.50
2014,02,13,01,54,2.50
2014,02,13,01,55,2.50
2014,02,13,01,56,2.50
2014,02,13,01,57,2.50
2014,02,13,01,58,2.50
2014,02,13,01,59,2.50
2014,02,13,02,00,2.50
2014,02,13,02,01,2.50
2014,02,13,02,02,2.50
2014,02,13,02,03,2.50
2014,02,13,02,04,2.50
2014,02,13,02,05,2.40
2014,02,13,02,06,2.40
2014,02,13,02,07,2.40
2014,02,13,02,08,2.40
2014,02,13,02,09,2.40
2014,02,13,02,10,2.40
2014,02,13,02,11,2.40
2014,02,13,02,12,2.30
2014,02,13,02,13,2.30
2014,02,13,02,14,2.30
2014,02,13,02,15,2.30
2014,02,13,02,16,2.40
2014,02,13,02,17,2.40
2014,02,13,02,18,2.40
2014,02,13,02,19,2.40
2014,02,13,02,20,2.40
2014,02,13,02,21,2.50
2014,02,13,02,22,2.50
2014,02,13,02,23,2.60
2014,02,13,02,24,2.60
2014,02,13,02,25,2.60
2014,02,13,02,26,2.60
2014,02,13,02,27,2.50
2014,02,13,02,28,2.50
2014,02,13,02,29,2.50
2014,02,13,02,30,2.50
2014,02,13,02,31,2.40
2014,02,13,02,32,2.40
2014,02,13,02,33,2.40
2014,02,13,02,34,2.40
2014,02,13,02,35,2.40
2014,02,13,02,36,2.50
2014,02,13,02,37,2.50
2014,02,13,02,38,2.50
2014,02,13,02,39,2.50
2014,02,13,02,40,2.50
2014,02,13,02,41,2.50
2014,02,13,02,42,2.60
2014,02,13,02,43,2.60
2014,02,13,02,44,2.60
2014,02,13,02,45,2.60
2014,02,13,02,46,2.60
2014,02,13,02,47,2.60
2014,02,13,02,48,2.50
2014,02,13,02,49,2.50
2014,02,13,02,50,2.50
2014,02,13,02,51,2.50
2014,02,13,02,52,2.50
2014,02,13,02,53,2.50
2014,02,13,02,54,2.50
2014,02,13,02,55,2.50
2014,02,13,02,56,2.60
2014,02,13,02,57,2.60
2014,02,13,02,58,2.60
2014,02,13,02,59,2.60
2014,02,13,03,00,2.60
2014,02,13,03,01,2.70
2014,02,13,03,02,2.70
2014,02,13,03,03,2.70
2014,02,13,03,04,2.70
2014,02,13,03,05,2.70
2014,02,13,03,06,2.70
2014,02,13,03,07,2.70
2014,02,13,03,08,2.80
2014,02,13,03,09,2.80
2014,02,13,03,10,2.80
2014,02,13,03,11,2.80
2014,02,13,03,12,2.80
2014,02,13,03,13,2.80
2014,02,13,03,14,2.80
2014,02,13,03,15,2.80
2014,02,13,03,16,2.90
2014,02,13,03,17,2.90
2014,02,13,03,18,2.90
2014,02,13,03,19,3.00
2014,02,13,03,20,3.00
2014,02,13,03,21,3.00
2014,02,13,03,22,3.10
2014,02,13,03,23,3.10
2014,02,13,03,24,3.10
2014,02,13,03,25,3.10
2014,02,13,03,26,3.10
2014,02,13,03,27,3.10
2014,02,13,03,28,3.20
2014,02,13,03,29,3.20
2014,02,13,03,30,3.20
2014,02,13,03,31,3.30
2014,02,13,03,32,3.30
2014,02,13,03,33,3.30
2014,02,13,03,34,3.40
2014,02,13,03,35,3.40
2014,02,13,03,36,3.40
2014,02,13,03,37,3.40
2014,02,13,03,38,3.50
2014,02,13,03,39,3.50
2014,02,13,03,40,3.60
2014,02,13,03,41,3.60
2014,02,13,03,42,3.60
2014,02,13,03,43,3.60
2014,02,13,03,44,3.60
2014,02,13,03,45,3.60
2014,02,13,03,46,3.60
2014,02,13,03,47,3.60
2014,02,13,03,48,3.60
2014,02,13,03,49,3.60
2014,02,13,03,50,3.60
2014,02,13,03,51,3.60
2014,02,13,03,52,3.60
2014,02,13,03,53,3.60
2014,02,13,03,54,3.50
2014,02,13,03,55,3.50
2014,02,13,03,56,3.50
2014,02,13,03,57,3.40
2014,02,13,03,58,3.40
2014,02,13,03,59,3.40
2014,02,13,04,00,3.40
2014,02,13,04,01,3.40
2014,02,13,04,02,3.40
2014,02,13,04,03,3.30
2014,02,13,04,04,3.30
2014,02,13,04,05,3.40
2014,02,13,04,06,3.40
2014,02,13,04,07,3.40
2014,02,13,04,08,3.40
2014,02,13,04,09,3.40
2014,02,13,04,10,3.40
2014,02,13,04,11,3.40
2014,02,13,04,12,3.50
2014,02,13,04,13,3.50
2014,02,13,04,14,3.50
2014,02,13,04,15,3.50
2014,02,13,04,16,3.50
2014,02,13,04,17,3.50
2014,02,13,04,18,3.50
2014,02,13,04,19,3.50
2014,02,13,04,20,3.50
2014,02,13,04,21,3.60
2014,02,13,04,22,3.60
2014,02,13,04,23,3.60
2014,02,13,04,24,3.60
2014,02,13,04,25,3.60
2014,02,13,04,26,3.60
2014,02,13,04,27,3.50
2014,02,13,04,28,3.50
2014,02,13,04,29,3.40
2014,02,13,04,30,3.40
2014,02,13,04,31,3.40
2014,02,13,04,32,3.50
2014,02,13,04,33,3.50
2014,02,13,04,34,3.60
2014,02,13,04,35,3.60
2014,02,13,04,36,3.70
2014,02,13,04,37,3.70
2014,02,13,04,38,3.70
2014,02,13,04,39,3.70
2014,02,13,04,40,3.70
2014,02,13,04,41,3.70
2014,02,13,04,42,3.70
2014,02,13,04,43,3.80
2014,02,13,04,44,3.80
2014,02,13,04,45,3.80
2014,02,13,04,46,3.90
2014,02,13,04,47,4.00
2014,02,13,04,48,4.10
2014,02,13,04,49,4.10
2014,02,13,04,50,4.20
2014,02,13,04,51,4.20
2014,02,13,04,52,4.20
2014,02,13,04,53,4.30
2014,02,13,04,54,4.40
2014,02,13,04,55,4.60
2014,02,13,04,56,4.80
2014,02,13,04,57,4.90
2014,02,13,04,58,4.90
2014,02,13,04,59,4.90
2014,02,13,05,00,4.90
2014,02,13,05,01,4.90
2014,02,13,05,02,4.90
2014,02,13,05,03,4.90
2014,02,13,05,04,5.00
2014,02,13,05,05,5.10
2014,02,13,05,06,5.20
2014,02,13,05,07,5.40
2014,02,13,05,08,5.50
2014,02,13,05,09,5.70
2014,02,13,05,10,5.80
2014,02,13,05,11,5.90
2014,02,13,05,12,5.90
2014,02,13,05,13,5.90
2014,02,13,05,14,5.90
2014,02,13,05,15,6.00
2014,02,13,05,16,6.00
2014,02,13,05,17,6.00
2014,02,13,05,18,6.00
2014,02,13,05,19,6.20
2014,02,13,05,20,6.30
2014,02,13,05,21,6.40
2014,02,13,05,22,6.50
2014,02,13,05,23,6.50
2014,02,13,05,24,6.50
2014,02,13,05,25,6.60
2014,02,13,05,26,6.60
2014,02,13,05,27,6.60
2014,02,13,05,28,6.60
2014,02,13,05,29,6.60
2014,02,13,05,30,6.60
2014,02,13,05,31,6.60
2014,02,13,05,32,6.60
2014,02,13,05,33,6.60
2014,02,13,05,34,6.60
2014,02,13,05,35,6.60
2014,02,13,05,36,6.60
2014,02,13,05,37,6.70
2014,02,13,05,38,6.70
2014,02,13,05,39,6.80
2014,02,13,05,40,6.80
2014,02,13,05,41,6.80
2014,02,13,05,42,6.90
2014,02,13,05,43,6.90
2014,02,13,05,44,6.90
2014,02,13,05,45,6.90
2014,02,13,05,46,6.90
2014,02,13,05,47,6.90
2014,02,13,05,48,6.90
2014,02,13,05,49,6.80
2014,02,13,05,50,6.80
2014,02,13,05,51,6.80
2014,02,13,05,52,6.80
2014,02,13,05,53,6.70
2014,02,13,05,54,6.70
2014,02,13,05,55,6.70
2014,02,13,05,56,6.80
2014,02,13,05,57,6.90
2014,02,13,05,58,6.90
2014,02,13,05,59,7.00
2014,02,13,06,00,7.10
2014,02,13,06,01,7.10
2014,02,13,06,02,7.10
2014,02,13,06,03,7.10
2014,02,13,06,04,7.00
2014,02,13,06,05,7.00
2014,02,13,06,06,7.00
2014,02,13,06,07,7.10
2014,02,13,06,08,7.10
2014,02,13,06,09,7.10
2014,02,13,06,10,7.10
2014,02,13,06,11,7.00
2014,02,13,06,12,7.00
2014,02,13,06,13,7.00
2014,02,13,06,14,6.90
2014,02,13,06,15,6.90
2014,02,13,06,16,6.90
2014,02,13,06,17,6.90
2014,02,13,06,18,6.90
2014,02,13,06,19,6.90
2014,02,13,06,20,7.00
2014,02,13,06,21,7.10
2014,02,13,06,22,7.20
2014,02,13,06,23,7.20
2014,02,13,06,24,7.20
2014,02,13,06,25,7.30
2014,02,13,06,26,7.30
2014,02,13,06,27,7.30
2014,02,13,06,28,7.20
2014,02,13,06,29,7.30
2014,02,13,06,30,7.30
2014,02,13,06,31,7.30
2014,02,13,06,32,7.30
2014,02,13,06,33,7.30
2014,02,13,06,34,7.30
2014,02,13,06,35,7.30
2014,02,13,06,36,7.30
2014,02,13,06,37,7.30
2014,02,13,06,38,7.30
2014,02,13,06,39,7.20
2014,02,13,06,40,7.20
2014,02,13,06,41,7.20
2014,02,13,06,42,7.20
2014,02,13,06,43,7.20
2014,02,13,06,44,7.20
2014,02,13,06,45,7.20
2014,02,13,06,46,7.20
2014,02,13,06,47,7.20
2014,02,13,06,48,7.20
2014,02,13,06,49,7.20
2014,02,13,06,50,7.20
2014,02,13,06,51,7.10
2014,02,13,06,52,7.10
2014,02,13,06,53,7.10
2014,02,13,06,54,7.10
2014,02,13,06,55,7.10
2014,02,13,06,56,7.20
2014,02,13,06,57,7.20
2014,02,13,06,58,7.20
2014,02,13,06,59,7.20
2014,02,13,07,00,7.20
2014,02,13,07,01,7.20
2014,02,13,07,02,7.20
2014,02,13,07,03,7.20
2014,02,13,07,04,7.20
2014,02,13,07,05,7.10
2014,02,13,07,06,6.90
2014,02,13,07,07,6.70
2014,02,13,07,08,6.60
2014,02,13,07,09,6.40
2014,02,13,07,10,6.20
2014,02,13,07,11,6.10
2014,02,13,07,12,6.00
2014,02,13,07,13,5.80
2014,02,13,07,14,5.70
2014,02,13,07,15,5.70
2014,02,13,07,16,5.60
2014,02,13,07,17,5.60
2014,02,13,07,18,5.60
2014,02,13,07,19,5.70
2014,02,13,07,20,5.90
2014,02,13,07,21,6.10
2014,02,13,07,22,6.30
2014,02,13,07,23,6.50
2014,02,13,07,24,6.60
2014,02,13,07,25,6.70
2014,02,13,07,26,6.70
2014,02,13,07,27,6.80
2014,02,13,07,28,6.90
2014,02,13,07,29,6.90
2014,02,13,07,30,6.90
2014,02,13,07,31,6.80
2014,02,13,07,32,6.80
2014,02,13,07,33,6.70
2014,02,13,07,34,6.70
2014,02,13,07,35,6.60
2014,02,13,07,36,6.40
2014,02,13,07,37,6.20
2014,02,13,07,38,6.00
2014,02,13,07,39,5.90
2014,02,13,07,40,5.70
2014,02,13,07,41,5.70
2014,02,13,07,42,5.60
2014,02,13,07,43,5.50
2014,02,13,07,44,5.40
2014,02,13,07,45,5.30
2014,02,13,07,46,5.20
2014,02,13,07,47,5.10
2014,02,13,07,48,5.10
2014,02,13,07,49,5.00
2014,02,13,07,50,5.00
2014,02,13,07,51,4.90
2014,02,13,07,52,4.80
2014,02,13,07,53,4.70
2014,02,13,07,54,4.60
2014,02,13,07,55,4.60
2014,02,13,07,56,4.70
2014,02,13,07,57,4.70
2014,02,13,07,58,4.80
2014,02,13,07,59,4.80
2014,02,13,08,00,4.90
2014,02,13,08,01,5.00
2014,02,13,08,02,5.00
2014,02,13,08,03,5.00
2014,02,13,08,04,5.10
2014,02,13,08,05,5.20
2014,02,13,08,06,5.30
2014,02,13,08,07,5.40
2014,02,13,08,08,5.50
2014,02,13,08,09,5.50
2014,02,13,08,10,5.60
2014,02,13,08,11,5.60
2014,02,13,08,12,5.70
2014,02,13,08,13,5.70
2014,02,13,08,14,5.80
2014,02,13,08,15,5.90
2014,02,13,08,16,6.00
2014,02,13,08,17,6.00
2014,02,13,08,18,6.10
2014,02,13,08,19,6.10
2014,02,13,08,20,6.20
2014,02,13,08,21,6.20
2014,02,13,08,22,6.30
2014,02,13,08,23,6.30
2014,02,13,08,24,6.40
2014,02,13,08,25,6.40
2014,02,13,08,26,6.40
2014,02,13,08,27,6.40
2014,02,13,08,28,6.40
2014,02,13,08,29,6.40
2014,02,13,08,30,6.40
2014,02,13,08,31,6.40
2014,02,13,08,32,6.40
2014,02,13,08,33,6.40
2014,02,13,08,34,6.40
2014,02,13,08,35,6.40
2014,02,13,08,36,6.40
2014,02,13,08,37,6.40
2014,02,13,08,38,6.40
2014,02,13,08,39,6.40
2014,02,13,08,40,6.40
2014,02,13,08,41,6.40
2014,02,13,08,42,6.40
2014,02,13,08,43,6.30
2014,02,13,08,44,6.30
2014,02,13,08,45,6.40
2014,02,13,08,46,6.40
2014,02,13,08,47,6.40
2014,02,13,08,48,6.40
2014,02,13,08,49,6.40
2014,02,13,08,50,6.30
2014,02,13,08,51,6.30
2014,02,13,08,52,6.30
2014,02,13,08,53,6.30
2014,02,13,08,54,6.40
2014,02,13,08,55,6.40
2014,02,13,08,56,6.40
2014,02,13,08,57,6.40
2014,02,13,08,58,6.40
2014,02,13,08,59,6.40
2014,02,13,09,00,6.40
2014,02,13,09,01,6.50
2014,02,13,09,02,6.50
2014,02,13,09,03,6.50
2014,02,13,09,04,6.60
2014,02,13,09,05,6.60
2014,02,13,09,06,6.60
2014,02,13,09,07,6.60
2014,02,13,09,08,6.60
2014,02,13,09,09,6.60
2014,02,13,09,10,6.60
2014,02,13,09,11,6.60
2014,02,13,09,12,6.60
2014,02,13,09,13,6.60
2014,02,13,09,14,6.60
2014,02,13,09,15,6.60
2014,02,13,09,16,6.50
2014,02,13,09,17,6.50
2014,02,13,09,18,6.40
2014,02,13,09,19,6.40
2014,02,13,09,20,6.40
2014,02,13,09,21,6.40
2014,02,13,09,22,6.30
2014,02,13,09,23,6.30
2014,02,13,09,24,6.30
2014,02,13,09,25,6.30
2014,02,13,09,26,6.30
2014,02,13,09,27,6.40
2014,02,13,09,28,6.40
2014,02,13,09,29,6.40
2014,02,13,09,30,6.40
2014,02,13,09,31,6.40
2014,02,13,09,32,6.40
2014,02,13,09,33,6.40
2014,02,13,09,34,6.40
2014,02,13,09,35,6.40
2014,02,13,09,36,6.40
2014,02,13,09,37,6.40
2014,02,13,09,38,6.40
2014,02,13,09,39,6.40
2014,02,13,09,40,6.40
2014,02,13,09,41,6.40
2014,02,13,09,42,6.50
2014,02,13,09,43,6.60
2014,02,13,09,44,6.70
2014,02,13,09,45,6.80
2014,02,13,09,46,6.90
2014,02,13,09,47,7.00
2014,02,13,09,48,7.10
2014,02,13,09,49,7.20
2014,02,13,09,50,7.20
2014,02,13,09,51,7.30
2014,02,13,09,52,7.30
2014,02,13,09,53,7.30
2014,02,13,09,54,7.30
2014,02,13,09,55,7.30
2014,02,13,09,56,7.30
2014,02,13,09,57,7.30
2014,02,13,09,58,7.20
2014,02,13,09,59,7.20
2014,02,13,10,00,7.20
2014,02,13,10,01,7.20
2014,02,13,10,02,7.20
2014,02,13,10,03,7.20
2014,02,13,10,04,7.30
2014,02,13,10,05,7.30
2014,02,13,10,06,7.40
2014,02,13,10,07,7.50
2014,02,13,10,08,7.50
2014,02,13,10,09,7.60
2014,02,13,10,10,7.60
2014,02,13,10,11,7.70
2014,02,13,10,12,7.70
2014,02,13,10,13,7.80
2014,02,13,10,14,7.80
2014,02,13,10,15,7.80
2014,02,13,10,16,7.80
2014,02,13,10,17,7.80
2014,02,13,10,18,7.80
2014,02,13,10,19,7.90
2014,02,13,10,20,7.90
2014,02,13,10,21,7.90
2014,02,13,10,22,7.90
2014,02,13,10,23,7.90
2014,02,13,10,24,8.00
2014,02,13,10,25,8.00
2014,02,13,10,26,8.00
2014,02,13,10,27,8.10
2014,02,13,10,28,8.10
2014,02,13,10,29,8.10
2014,02,13,10,30,8.20
2014,02,13,10,31,8.20
2014,02,13,10,32,8.20
2014,02,13,10,33,8.20
2014,02,13,10,34,8.20
2014,02,13,10,35,8.20
2014,02,13,10,36,8.20
2014,02,13,10,37,8.20
2014,02,13,10,38,8.20
2014,02,13,10,39,8.20
2014,02,13,10,40,8.30
2014,02,13,10,41,8.30
2014,02,13,10,42,8.30
2014,02,13,10,43,8.30
2014,02,13,10,44,8.30
2014,02,13,10,45,8.30
2014,02,13,10,46,8.30
2014,02,13,10,47,8.30
2014,02,13,10,48,8.30
2014,02,13,10,49,8.30
2014,02,13,10,50,8.30
2014,02,13,10,51,8.30
2014,02,13,10,52,8.30
2014,02,13,10,53,8.30
2014,02,13,10,54,8.30
2014,02,13,10,55,8.30
2014,02,13,10,56,8.30
2014,02,13,10,57,8.40
2014,02,13,10,58,8.40
2014,02,13,10,59,8.40
2014,02,13,11,00,8.40
2014,02,13,11,01,8.50
2014,02,13,11,02,8.50
2014,02,13,11,03,8.60
2014,02,13,11,04,8.60
2014,02,13,11,05,8.70
2014,02,13,11,06,8.70
2014,02,13,11,07,8.80
2014,02,13,11,08,8.80
2014,02,13,11,09,8.90
2014,02,13,11,10,8.90
2014,02,13,11,11,8.90
2014,02,13,11,12,9.00
2014,02,13,11,13,9.00
2014,02,13,11,14,9.10
2014,02,13,11,15,9.10
2014,02,13,11,16,9.10
2014,02,13,11,17,9.20
2014,02,13,11,18,9.20
2014,02,13,11,19,9.30
2014,02,13,11,20,9.40
2014,02,13,11,21,9.50
2014,02,13,11,22,9.60
2014,02,13,11,23,9.60
2014,02,13,11,24,9.70
2014,02,13,11,25,9.80
2014,02,13,11,26,9.80
2014,02,13,11,27,9.90
2014,02,13,11,28,9.90
2014,02,13,11,29,9.90
2014,02,13,11,30,10.00
2014,02,13,11,31,10.00
2014,02,13,11,32,10.10
2014,02,13,11,33,10.10
2014,02,13,11,34,10.10
2014,02,13,11,35,10.20
2014,02,13,11,36,10.20
2014,02,13,11,37,10.30
2014,02,13,11,38,10.30
2014,02,13,11,39,10.40
2014,02,13,11,40,10.40
2014,02,13,11,41,10.40
2014,02,13,11,42,10.40
2014,02,13,11,43,10.40
2014,02,13,11,44,10.40
2014,02,13,11,45,10.50
2014,02,13,11,46,10.50
2014,02,13,11,47,10.50
2014,02,13,11,48,10.40
2014,02,13,11,49,10.40
2014,02,13,11,50,10.40
2014,02,13,11,51,10.40
2014,02,13,11,52,10.40
2014,02,13,11,53,10.40
2014,02,13,11,54,10.40
2014,02,13,11,55,10.40
2014,02,13,11,56,10.50
2014,02,13,11,57,10.50
2014,02,13,11,58,10.60
2014,02,13,11,59,10.60
2014,02,13,12,00,10.60
2014,02,13,12,01,10.60
2014,02,13,12,02,10.60
2014,02,13,12,03,10.60
2014,02,13,12,04,10.60
2014,02,13,12,05,10.60
2014,02,13,12,06,10.50
2014,02,13,12,07,10.50
2014,02,13,12,08,10.50
2014,02,13,12,09,10.50
2014,02,13,12,10,10.50
2014,02,13,12,11,10.50
2014,02,13,12,12,10.50
2014,02,13,12,13,10.60
2014,02,13,12,14,10.60
2014,02,13,12,15,10.60
2014,02,13,12,16,10.60
2014,02,13,12,17,10.70
2014,02,13,12,18,10.80
2014,02,13,12,19,10.80
2014,02,13,12,20,10.90
2014,02,13,12,21,10.90
2014,02,13,12,22,11.00
2014,02,13,12,23,11.10
2014,02,13,12,24,11.00
2014,02,13,12,25,11.00
2014,02,13,12,26,10.80
2014,02,13,12,27,10.70
2014,02,13,12,28,10.50
2014,02,13,12,29,10.40
2014,02,13,12,30,10.30
2014,02,13,12,31,10.20
2014,02,13,12,32,10.20
2014,02,13,12,33,10.10
2014,02,13,12,34,10.10
2014,02,13,12,35,10.10
2014,02,13,12,36,10.10
2014,02,13,12,37,10.10
2014,02,13,12,38,10.10
2014,02,13,12,39,10.10
2014,02,13,12,40,10.20
2014,02,13,12,41,10.20
2014,02,13,12,42,10.20
2014,02,13,12,43,10.20
2014,02,13,12,44,10.20
2014,02,13,12,45,10.10
2014,02,13,12,46,10.10
2014,02,13,12,47,10.10
2014,02,13,12,48,10.10
2014,02,13,12,49,10.10
2014,02,13,12,50,10.10
2014,02,13,12,51,10.20
2014,02,13,12,52,10.20
2014,02,13,12,53,10.20
2014,02,13,12,54,10.20
2014,02,13,12,55,10.20
2014,02,13,12,56,10.20
2014,02,13,12,57,10.20
2014,02,13,12,58,10.20
2014,02,13,12,59,10.20
2014,02,13,13,00,10.20
2014,02,13,13,01,10.20
2014,02,13,13,02,10.20
2014,02,13,13,03,10.20
2014,02,13,13,04,10.20
2014,02,13,13,05,10.20
2014,02,13,13,06,10.20
2014,02,13,13,07,10.30
2014,02,13,13,08,10.30
2014,02,13,13,09,10.30
2014,02,13,13,10,10.20
2014,02,13,13,11,10.20
2014,02,13,13,12,10.10
2014,02,13,13,13,10.10
2014,02,13,13,14,10.10
2014,02,13,13,15,10.10
2014,02,13,13,16,10.10
2014,02,13,13,17,10.10
2014,02,13,13,18,10.10
2014,02,13,13,19,10.10
2014,02,13,13,20,10.10
2014,02,13,13,21,10.20
2014,02,13,13,22,10.20
2014,02,13,13,23,10.30
2014,02,13,13,24,10.30
2014,02,13,13,25,10.40
2014,02,13,13,26,10.40
2014,02,13,13,27,10.50
2014,02,13,13,28,10.60
2014,02,13,13,29,10.70
2014,02,13,13,30,10.70
2014,02,13,13,31,10.80
2014,02,13,13,32,10.90
2014,02,13,13,33,11.00
2014,02,13,13,34,11.10
2014,02,13,13,35,11.20
2014,02,13,13,36,11.30
2014,02,13,13,37,11.30
2014,02,13,13,38,11.30
2014,02,13,13,39,11.40
2014,02,13,13,40,11.40
2014,02,13,13,41,11.50
2014,02,13,13,42,11.50
2014,02,13,13,43,11.50
2014,02,13,13,44,11.50
2014,02,13,13,45,11.60
2014,02,13,13,46,11.50
2014,02,13,13,47,11.50
2014,02,13,13,48,11.50
2014,02,13,13,49,11.40
2014,02,13,13,50,11.50
2014,02,13,13,51,11.50
2014,02,13,13,52,11.50
2014,02,13,13,53,11.40
2014,02,13,13,54,11.40
2014,02,13,13,55,11.30
2014,02,13,13,56,11.30
2014,02,13,13,57,11.30
2014,02,13,13,58,11.30
2014,02,13,13,59,11.30
2014,02,13,14,00,11.30
2014,02,13,14,01,11.30
2014,02,13,14,02,11.30
2014,02,13,14,03,11.30
2014,02,13,14,04,11.30
2014,02,13,14,05,11.30
2014,02,13,14,06,11.30
2014,02,13,14,07,11.30
2014,02,13,14,08,11.40
2014,02,13,14,09,11.40
2014,02,13,14,10,11.40
2014,02,13,14,11,11.40
2014,02,13,14,12,11.40
2014,02,13,14,13,11.40
2014,02,13,14,14,11.30
2014,02,13,14,15,11.40
2014,02,13,14,16,11.40
2014,02,13,14,17,11.40
2014,02,13,14,18,11.40
2014,02,13,14,19,11.40
2014,02,13,14,20,11.40
2014,02,13,14,21,11.40
2014,02,13,14,22,11.50
2014,02,13,14,23,11.40
2014,02,13,14,24,11.40
2014,02,13,14,25,11.30
2014,02,13,14,26,11.30
2014,02,13,14,27,11.20
2014,02,13,14,28,11.20
2014,02,13,14,29,11.20
2014,02,13,14,30,11.20
2014,02,13,14,31,11.20
2014,02,13,14,32,11.20
2014,02,13,14,33,11.20
2014,02,13,14,34,11.20
2014,02,13,14,35,11.20
2014,02,13,14,36,11.20
2014,02,13,14,37,11.20
2014,02,13,14,38,11.20
2014,02,13,14,39,11.30
2014,02,13,14,40,11.30
2014,02,13,14,41,11.30
2014,02,13,14,42,11.30
2014,02,13,14,43,11.30
2014,02,13,14,44,11.30
2014,02,13,14,45,11.30
2014,02,13,14,46,11.30
2014,02,13,14,47,11.30
2014,02,13,14,48,11.30
2014,02,13,14,49,11.30
2014,02,13,14,50,11.30
2014,02,13,14,51,11.30
2014,02,13,14,52,11.30
2014,02,13,14,53,11.30
2014,02,13,14,54,11.30
2014,02,13,14,55,11.30
2014,02,13,14,56,11.30
2014,02,13,14,57,11.30
2014,02,13,14,58,11.30
2014,02,13,14,59,11.30
2014,02,13,15,00,11.30
2014,02,13,15,01,11.30
2014,02,13,15,02,11.20
2014,02,13,15,03,11.30
2014,02,13,15,04,11.30
2014,02,13,15,05,11.30
2014,02,13,15,06,11.30
2014,02,13,15,07,11.30
2014,02,13,15,08,11.30
2014,02,13,15,09,11.30
2014,02,13,15,10,11.30
2014,02,13,15,11,11.40
2014,02,13,15,12,11.40
2014,02,13,15,13,11.40
2014,02,13,15,14,11.40
2014,02,13,15,15,11.40
2014,02,13,15,16,11.40
2014,02,13,15,17,11.40
2014,02,13,15,18,11.30
2014,02,13,15,19,11.30
2014,02,13,15,20,11.30
2014,02,13,15,21,11.30
2014,02,13,15,22,11.30
2014,02,13,15,23,11.30
2014,02,13,15,24,11.30
2014,02,13,15,25,11.30
2014,02,13,15,26,11.30
2014,02,13,15,27,11.40
2014,02,13,15,28,11.40
2014,02,13,15,29,11.40
2014,02,13,15,30,11.40
2014,02,13,15,31,11.40
2014,02,13,15,32,11.30
2014,02,13,15,33,11.30
2014,02,13,15,34,11.30
2014,02,13,15,35,11.30
2014,02,13,15,36,11.30
2014,02,13,15,37,11.30
2014,02,13,15,38,11.30
2014,02,13,15,39,11.30
2014,02,13,15,40,11.30
2014,02,13,15,41,11.30
2014,02,13,15,42,11.20
2014,02,13,15,43,11.10
2014,02,13,15,44,11.00
2014,02,13,15,45,11.00
2014,02,13,15,46,10.90
2014,02,13,15,47,10.90
2014,02,13,15,48,10.90
2014,02,13,15,49,11.00
2014,02,13,15,50,11.00
2014,02,13,15,51,11.00
2014,02,13,15,52,11.00
2014,02,13,15,53,10.90
2014,02,13,15,54,10.90
2014,02,13,15,55,10.90
2014,02,13,15,56,10.80
2014,02,13,15,57,10.80
2014,02,13,15,58,10.70
2014,02,13,15,59,10.60
2014,02,13,16,00,10.50
2014,02,13,16,01,10.50
2014,02,13,16,02,10.40
2014,02,13,16,03,10.40
2014,02,13,16,04,10.30
2014,02,13,16,05,10.30
2014,02,13,16,06,10.30
2014,02,13,16,07,10.30
2014,02,13,16,08,10.20
2014,02,13,16,09,10.20
2014,02,13,16,10,10.20
2014,02,13,16,11,10.20
2014,02,13,16,12,10.20
2014,02,13,16,13,10.10
2014,02,13,16,14,10.10
2014,02,13,16,15,10.10
2014,02,13,16,16,10.10
2014,02,13,16,17,10.10
2014,02,13,16,18,10.10
2014,02,13,16,19,10.00
2014,02,13,16,20,10.00
2014,02,13,16,21,10.00
2014,02,13,16,22,10.00
2014,02,13,16,23,9.90
2014,02,13,16,24,9.90
2014,02,13,16,25,9.90
2014,02,13,16,26,9.90
2014,02,13,16,27,9.90
2014,02,13,16,28,9.90
2014,02,13,16,29,9.80
2014,02,13,16,30,9.80
2014,02,13,16,31,9.80
2014,02,13,16,32,9.80
2014,02,13,16,33,9.80
2014,02,13,16,34,9.80
2014,02,13,16,35,9.70
2014,02,13,16,36,9.70
2014,02,13,16,37,9.70
2014,02,13,16,38,9.70
2014,02,13,16,39,9.70
2014,02,13,16,40,9.70
2014,02,13,16,41,9.80
2014,02,13,16,42,9.80
2014,02,13,16,43,9.70
2014,02,13,16,44,9.70
2014,02,13,16,45,9.70
2014,02,13,16,46,9.70
2014,02,13,16,47,9.70
2014,02,13,16,48,9.60
2014,02,13,16,49,9.60
2014,02,13,16,50,9.50
2014,02,13,16,51,9.50
2014,02,13,16,52,9.40
2014,02,13,16,53,9.40
2014,02,13,16,54,9.40
2014,02,13,16,55,9.40
2014,02,13,16,56,9.40
2014,02,13,16,57,9.40
2014,02,13,16,58,9.40
2014,02,13,16,59,9.40
2014,02,13,17,00,9.30
2014,02,13,17,01,9.30
2014,02,13,17,02,9.20
2014,02,13,17,03,9.20
2014,02,13,17,04,9.20
2014,02,13,17,05,9.10
2014,02,13,17,06,9.00
2014,02,13,17,07,9.00
2014,02,13,17,08,8.90
2014,02,13,17,09,8.90
2014,02,13,17,10,8.90
2014,02,13,17,11,8.90
2014,02,13,17,12,8.80
2014,02,13,17,13,8.70
2014,02,13,17,14,8.70
2014,02,13,17,15,8.60
2014,02,13,17,16,8.50
2014,02,13,17,17,8.50
2014,02,13,17,18,8.50
2014,02,13,17,19,8.40
2014,02,13,17,20,8.40
2014,02,13,17,21,8.40
2014,02,13,17,22,8.40
2014,02,13,17,23,8.40
2014,02,13,17,24,8.40
2014,02,13,17,25,8.30
2014,02,13,17,26,8.30
2014,02,13,17,27,8.30
2014,02,13,17,28,8.20
2014,02,13,17,29,8.20
2014,02,13,17,30,8.20
2014,02,13,17,31,8.20
2014,02,13,17,32,8.10
2014,02,13,17,33,8.10
2014,02,13,17,34,8.10
2014,02,13,17,35,8.10
2014,02,13,17,36,8.00
2014,02,13,17,37,8.00
2014,02,13,17,38,8.00
2014,02,13,17,39,7.90
2014,02,13,17,40,7.90
2014,02,13,17,41,7.90
2014,02,13,17,42,7.90
2014,02,13,17,43,7.90
2014,02,13,17,44,7.80
2014,02,13,17,45,7.80
2014,02,13,17,46,7.80
2014,02,13,17,47,7.80
2014,02,13,17,48,7.80
2014,02,13,17,49,7.70
2014,02,13,17,50,7.70
2014,02,13,17,51,7.70
2014,02,13,17,52,7.60
2014,02,13,17,53,7.60